Location: St Paul
(33.9360°N, 83.4200°W)
Time: 07:43:05
(UTC-04:00)

Cosmos 1328 - Pass Details

Date: 06 October 2017
Orbit: 535 x 553 km, 82.5° (Epoch: 22 October)

Event Time Altitude Azimuth Distance (km) Brightness Sun altitude
Rises 20:56:00 0° 351° (N) 2,717 7.6 -22.6°
Reaches altitude 10° 20:58:10 10° 350° (N) 1,817 6.7 -23.0°
Enters shadow 21:02:06 77° 278° (W) 561 3.8 -23.8°
